Météo par heure à Jumri Tilaiya

Ce jour, 20 Juin, Dimanche

Heure Température Précipitation Vent Pression Humidité
00:00 +26°C° 0 mm 3 m/s 719 mmHg 85%
01:00 +26°C° 0 mm 3 m/s 719 mmHg 86%
02:00 +26°C° 0 mm 2 m/s 718 mmHg 86%
03:00 +26°C° 0 mm 2 m/s 718 mmHg 87%
04:00 +26°C° 0.1 mm 2 m/s 718 mmHg 86%
05:00 +26°C° 0.1 mm 1 m/s 718 mmHg 86%
06:00 +26°C° 0.1 mm 1 m/s 718 mmHg 85%
07:00 +27°C° 0 mm 1 m/s 719 mmHg 81%
08:00 +28°C° 0 mm 2 m/s 720 mmHg 77%
09:00 +29°C° 0 mm 3 m/s 720 mmHg 73%
10:00 +30°C° 0.6 mm 3 m/s 720 mmHg 68%
11:00 +32°C° 0.6 mm 4 m/s 720 mmHg 64%
12:00 +33°C° 0.6 mm 4 m/s 720 mmHg 60%
13:00 +33°C° 0.6 mm 4 m/s 720 mmHg 60%
14:00 +33°C° 0.6 mm 4 m/s 719 mmHg 60%
15:00 +33°C° 0.6 mm 4 m/s 719 mmHg 60%
16:00 +33°C° 0.8 mm 3 m/s 719 mmHg 63%
17:00 +31°C° 0.8 mm 2 m/s 719 mmHg 65%
18:00 +31°C° 0.8 mm 1 m/s 719 mmHg 68%
19:00 +30°C° 1.2 mm 1 m/s 719 mmHg 71%
20:00 +30°C° 1.2 mm 1 m/s 720 mmHg 74%
21:00 +29°C° 1.2 mm 1 m/s 720 mmHg 77%
22:00 +29°C° 0.9 mm 1 m/s 720 mmHg 77%
23:00 +29°C° 0.9 mm 1 m/s 720 mmHg 77%

Demain, 21 Juin, Lundi

Heure Température Précipitation Vent Pression Humidité
00:00 +29°C° 0.9 mm 1 m/s 720 mmHg 77%
01:00 +28°C° 0.3 mm 1 m/s 720 mmHg 78%
02:00 +28°C° 0.3 mm 1 m/s 719 mmHg 78%
03:00 +28°C° 0.3 mm 1 m/s 719 mmHg 79%
04:00 +28°C° 0.2 mm 1 m/s 719 mmHg 79%
05:00 +28°C° 0.2 mm 1 m/s 719 mmHg 80%
06:00 +27°C° 0.2 mm 1 m/s 720 mmHg 81%
07:00 +29°C° 0 mm 2 m/s 720 mmHg 75%
08:00 +30°C° 0 mm 2 m/s 720 mmHg 69%
09:00 +31°C° 0 mm 3 m/s 721 mmHg 64%
10:00 +33°C° 0.7 mm 3 m/s 721 mmHg 62%
11:00 +33°C° 0.7 mm 3 m/s 721 mmHg 60%
12:00 +34°C° 0.7 mm 3 m/s 720 mmHg 58%
13:00 +34°C° 1.2 mm 3 m/s 720 mmHg 58%
14:00 +35°C° 1.2 mm 3 m/s 719 mmHg 58%
15:00 +35°C° 1.2 mm 2 m/s 719 mmHg 57%
16:00 +34°C° 0.5 mm 2 m/s 719 mmHg 60%
17:00 +34°C° 0.5 mm 2 m/s 719 mmHg 62%
18:00 +32°C° 0.5 mm 1 m/s 719 mmHg 65%
19:00 +32°C° 0.2 mm 1 m/s 719 mmHg 68%
20:00 +31°C° 0.2 mm 1 m/s 719 mmHg 70%
21:00 +30°C° 0.2 mm 1 m/s 720 mmHg 73%
22:00 +30°C° 0.1 mm 1 m/s 720 mmHg 74%
23:00 +30°C° 0.1 mm 1 m/s 720 mmHg 75%

Après-demain, 22 Juin, Mardi

Heure Température Précipitation Vent Pression Humidité
00:00 +28°C° 0.1 mm 0 m/s 720 mmHg 76%
01:00 +29°C° 0.4 mm 1 m/s 719 mmHg 77%
02:00 +29°C° 0.4 mm 1 m/s 719 mmHg 78%
03:00 +29°C° 0.4 mm 1 m/s 719 mmHg 78%
04:00 +29°C° 0 mm 1 m/s 719 mmHg 78%
05:00 +28°C° 0 mm 1 m/s 719 mmHg 79%
06:00 +28°C° 0 mm 1 m/s 720 mmHg 79%
07:00 +30°C° 0 mm 2 m/s 720 mmHg 73%
08:00 +31°C° 0 mm 2 m/s 721 mmHg 66%
09:00 +34°C° 0 mm 3 m/s 721 mmHg 59%
10:00 +35°C° 0.2 mm 3 m/s 721 mmHg 56%
11:00 +36°C° 0.2 mm 3 m/s 721 mmHg 53%
12:00 +36°C° 0.2 mm 3 m/s 720 mmHg 49%
13:00 +37°C° 0 mm 2 m/s 720 mmHg 49%
14:00 +37°C° 0 mm 2 m/s 719 mmHg 48%
15:00 +37°C° 0 mm 2 m/s 719 mmHg 47%
16:00 +36°C° 0 mm 2 m/s 719 mmHg 51%
17:00 +36°C° 0 mm 2 m/s 719 mmHg 55%
18:00 +35°C° 0 mm 2 m/s 719 mmHg 59%
19:00 +34°C° 0 mm 2 m/s 719 mmHg 60%
20:00 +34°C° 0 mm 2 m/s 719 mmHg 62%
21:00 +32°C° 0 mm 2 m/s 719 mmHg 63%
22:00 +32°C° 0 mm 2 m/s 719 mmHg 65%
23:00 +32°C° 0 mm 2 m/s 719 mmHg 67%

23 Juin, Mercredi

Heure Température Précipitation Vent Pression Humidité
00:00 +31°C° 0 mm 2 m/s 719 mmHg 69%
01:00 +31°C° 0.1 mm 2 m/s 719 mmHg 70%
02:00 +30°C° 0.1 mm 2 m/s 719 mmHg 72%
03:00 +29°C° 0.1 mm 2 m/s 719 mmHg 74%
04:00 +29°C° 0.2 mm 2 m/s 719 mmHg 74%
05:00 +29°C° 0.2 mm 2 m/s 719 mmHg 75%
06:00 +29°C° 0.2 mm 2 m/s 719 mmHg 76%
07:00 +31°C° 0 mm 3 m/s 719 mmHg 70%
08:00 +33°C° 0 mm 3 m/s 720 mmHg 63%
09:00 +34°C° 0 mm 4 m/s 720 mmHg 57%
10:00 +36°C° 0 mm 4 m/s 720 mmHg 53%
11:00 +37°C° 0 mm 4 m/s 720 mmHg 50%
12:00 +38°C° 0 mm 4 m/s 720 mmHg 46%
13:00 +38°C° 0 mm 3 m/s 720 mmHg 46%
14:00 +38°C° 0 mm 3 m/s 719 mmHg 45%
15:00 +38°C° 0 mm 3 m/s 718 mmHg 45%
16:00 +38°C° 0 mm 2 m/s 718 mmHg 47%
17:00 +37°C° 0 mm 2 m/s 718 mmHg 48%
18:00 +36°C° 0 mm 1 m/s 718 mmHg 50%
19:00 +35°C° 0 mm 1 m/s 718 mmHg 54%
20:00 +35°C° 0 mm 2 m/s 718 mmHg 59%
21:00 +34°C° 0 mm 3 m/s 718 mmHg 63%
22:00 +33°C° 0 mm 3 m/s 718 mmHg 65%
23:00 +33°C° 0 mm 3 m/s 718 mmHg 67%

24 Juin, Jeudi

Heure Température Précipitation Vent Pression Humidité
00:00 +32°C° 0 mm 4 m/s 719 mmHg 69%
01:00 +31°C° 0 mm 3 m/s 718 mmHg 70%
02:00 +30°C° 0 mm 3 m/s 718 mmHg 71%
03:00 +30°C° 0 mm 3 m/s 718 mmHg 72%
04:00 +30°C° 0 mm 2 m/s 717 mmHg 72%
05:00 +30°C° 0 mm 2 m/s 717 mmHg 73%
06:00 +30°C° 0 mm 2 m/s 717 mmHg 73%
07:00 +31°C° 0 mm 3 m/s 717 mmHg 66%
08:00 +33°C° 0 mm 4 m/s 718 mmHg 60%
09:00 +35°C° 0 mm 5 m/s 719 mmHg 53%
10:00 +35°C° 0 mm 5 m/s 719 mmHg 51%
11:00 +36°C° 0 mm 4 m/s 718 mmHg 50%
12:00 +37°C° 0 mm 4 m/s 718 mmHg 48%
13:00 +37°C° 0 mm 3 m/s 718 mmHg 48%
14:00 +37°C° 0 mm 3 m/s 717 mmHg 49%
15:00 +37°C° 0 mm 2 m/s 717 mmHg 49%
16:00 +36°C° 0 mm 2 m/s 716 mmHg 52%
17:00 +35°C° 0 mm 2 m/s 716 mmHg 56%
18:00 +35°C° 0 mm 2 m/s 716 mmHg 59%
19:00 +34°C° 0 mm 2 m/s 716 mmHg 62%
20:00 +33°C° 0 mm 3 m/s 717 mmHg 65%
21:00 +31°C° 0 mm 3 m/s 717 mmHg 69%
22:00 +31°C° 0 mm 3 m/s 717 mmHg 71%
23:00 +31°C° 0 mm 3 m/s 717 mmHg 73%

25 Juin, Vendredi

Heure Température Précipitation Vent Pression Humidité
00:00 +30°C° 0 mm 3 m/s 717 mmHg 75%
01:00 +30°C° 0 mm 3 m/s 717 mmHg 75%
02:00 +30°C° 0 mm 3 m/s 716 mmHg 76%
03:00 +30°C° 0 mm 3 m/s 715 mmHg 76%
04:00 +29°C° 0.2 mm 2 m/s 716 mmHg 76%
05:00 +29°C° 0.2 mm 2 m/s 716 mmHg 77%
06:00 +29°C° 0.2 mm 2 m/s 716 mmHg 77%
07:00 +30°C° 0.6 mm 2 m/s 716 mmHg 72%
08:00 +31°C° 0.6 mm 3 m/s 717 mmHg 67%
09:00 +33°C° 0.6 mm 3 m/s 717 mmHg 62%
10:00 +34°C° 0.1 mm 3 m/s 717 mmHg 61%
11:00 +34°C° 0.1 mm 3 m/s 717 mmHg 60%
12:00 +35°C° 0.1 mm 3 m/s 717 mmHg 58%
13:00 +35°C° 0.1 mm 3 m/s 717 mmHg 56%
14:00 +36°C° 0.1 mm 3 m/s 716 mmHg 54%
15:00 +36°C° 0.1 mm 3 m/s 716 mmHg 52%
16:00 +36°C° 0 mm 3 m/s 716 mmHg 54%
17:00 +35°C° 0 mm 3 m/s 716 mmHg 57%
18:00 +34°C° 0 mm 3 m/s 716 mmHg 59%
19:00 +32°C° 0 mm 2 m/s 716 mmHg 63%
20:00 +32°C° 0 mm 2 m/s 716 mmHg 66%
21:00 +31°C° 0 mm 1 m/s 716 mmHg 70%
22:00 +30°C° 0 mm 1 m/s 716 mmHg 71%
23:00 +30°C° 0 mm 1 m/s 716 mmHg 72%
Voir plus

Nous avons besoin de votre consentement

Meteoprog et ses fournisseurs de services peuvent stocker et accéder à des données personnelles telles que des cookies, des identifiants d'appareils ou d'autres technologies similaires sur votre appareil et traiter ces données pour personnaliser le contenu et les publicités, ainsi que pour fournir des fonctionnalités de médias sociaux et analyser le trafic.

  • Stocker et/ou accéder à des informations sur votre appareil

    Des cookies, des identifiants d'appareils ou d'autres informations peuvent être stockés ou accessibles sur votre appareil aux fins indiquées ci-dessus.

  • Annonces et contenus personnalisés, mesure des annonces et des contenus, connaissance de l'audience et développement de produits

    Les annonces et le contenu peuvent être personnalisés en fonction d'un profil. D'autres données peuvent être ajoutées pour mieux personnaliser les annonces et le contenu. Les performances des publicités et du contenu peuvent être mesurées. Il est possible d'obtenir des informations sur le public qui a vu les publicités et le contenu. Ces données peuvent être utilisées pour développer ou améliorer l'expérience de l'utilisateur, les systèmes et les logiciels.

En cliquant sur "J'accepte", vous autorisez l'utilisation de cookies, des identifiants d'appareils, des balises web ou d'autres technologies similaires. Vos paramètres peuvent être modifiés dans le navigateur de votre appareil.

Dans certains cas, des intérêts légitimes peuvent être invoqués plutôt qu'un consentement. Vous pouvez en savoir plus à ce sujet dans notre Politique de confidentialité et de cookies.